AirNav   Jet Aviation Boston
 
 1582 users online  

KHHR Jack Northrop Field/Hawthorne Municipal Airport
Hawthorne, California, USA

GOING TO HAWTHORNE?


FAA INFORMATION EFFECTIVE 29 MARCH 2018

Location

FAA Identifier: HHR
Lat/Long: 33-55-22.2230N / 118-20-06.6740W
33-55.370383N / 118-20.111233W
33.9228397 / -118.3351872
(estimated)
Elevation: 65.5 ft. / 20.0 m (surveyed)
Variation: 14E (1985)
From city: 1 mile E of HAWTHORNE, CA
Time zone: UTC -7 (UTC -8 during Standard Time)
Zip code: 90250

Airport Operations

Airport use: Open to the public
Activation date: 10/1942
Control tower: yes
ARTCC: LOS ANGELES CENTER
FSS: HAWTHORNE FLIGHT SERVICE STATION
NOTAMs facility: HHR (NOTAM-D service available)
Attendance: 0700-2000
Pattern altitude: 1165.5 ft. MSL
TPA FOR LIGHT ACFT/HELICOPTER 1,100 FT MSL (1034 FT AGL), TURBINE/HIGH PERFORMANCE ACFT 1,600 FT MSL (1534 FT AGL).
Wind indicator: lighted
Segmented circle: yes
Lights: WHEN ATCT CLSD ACTVT MIRL RY 07/25 & ODALS RY 25 - CTAF.
Beacon: white-green (lighted land airport)
Operates sunset to sunrise.
Taxiway lights: N EDGE OF N TWY UNLGTD; WEST 1000' OF SOUTH TWY UNLGTD.

Airport Communications

CTAF: 121.1
ATIS: 118.4
WX ASOS: PHONE 310-973-8930
HAWTHORNE GROUND: 125.1 [0600-2200]
HAWTHORNE TOWER: 121.1 257.8 [0600-2200]
SOCAL APPROACH: 124.3(146-245) 124.9(069-145) 125.2(246-342) 128.5(343-068)
SOCAL DEPARTURE: 124.3
IC: 124.9(069-145)
IRNMN STAR: 124.5
RYDRR STAR: 124.5
WX ASOS at LAX (4 nm W): PHONE 310-568-1486
WX AWOS-3PT at CPM (5 nm SE): 127.150 (310-631-4958)
WX ASOS at SMO (8 nm NW): PHONE 310-392-6453
WX ASOS at LGB (11 nm SE): PHONE 562-424-0572
WX ASOS at BUR (17 nm N): PHONE 818-841-1384
WX AWOS-3PT at EMT (18 nm NE): 118.75 ((626) 444-1107)
WX ASOS at FUL (18 nm E): PHONE 714-870-1372
WX ASOS at VNY (19 nm NW): PHONE 818-904-9213
  • FOR CLNC DEL WHEN ATCT CLSD CALL SOCAL APCH (800) 448-3724.

Nearby radio navigation aids

VOR radial/distance  VOR name  Freq  Var
LAXr082/4.9LOS ANGELES VORTAC113.6015E
SMOr116/8.0SANTA MONICA VOR/DME110.8015E
SLIr286/16.3SEAL BEACH VORTAC115.7015E
VNYr142/19.6VAN NUYS VOR/DME113.1015E
POMr236/28.8POMONA VORTAC110.4015E
SXCr352/33.1SANTA CATALINA VORTAC111.4015E
ELBr282/33.6EL TORO VOR/DME117.2014E
VTUr093/37.3VENTURA VOR/DME108.2015E
FIMr119/37.6FILLMORE VORTAC112.5015E

 
NDB name  Hdg/Dist  Freq  Var  ID
EL MONTE222/18.135915EEMT . -- -

Airport Services

Fuel available: 100LL JET-A
100LL FUEL AVBL 24 HRS SELF-SERVICE. JET A FUEL AVBL 0500-0000 DAILY; CALL (310) 676-4673.
Parking: tiedowns
Airframe service: MAJOR
Powerplant service: MAJOR
Bottled oxygen: HIGH
Bulk oxygen: HIGH

Runway Information

Runway 7/25

Dimensions: 4956 x 100 ft. / 1511 x 30 m
Surface: asphalt, in good condition
Weight bearing capacity: 
Single wheel: 30.0
Double wheel: 60.0
Double tandem: 90.0
Runway edge lights: medium intensity
RUNWAY 7  RUNWAY 25
Latitude: 33-55.347200N33-55.393550N
Longitude: 118-20.600517W118-19.621967W
Elevation: 65.5 ft.60.6 ft.
Gradient: 0.1%0.1%
Traffic pattern: rightleft
Runway heading: 073 magnetic, 087 true253 magnetic, 267 true
Displaced threshold: 971 ft.463 ft.
Declared distances: TORA:4956 TODA:4956 ASDA:4736 LDA:3765TORA:4956 TODA:4956 ASDA:4656 LDA:4193
Markings: nonprecision, in fair conditionnonprecision, in fair condition
Visual slope indicator: 2-box VASI on right (3.25 degrees glide path)4-box VASI on right (3.50 degrees glide path)
Approach lights: ODALS: omnidirectional approach lighting system
Runway end identifier lights: noyes
Touchdown point: yes, no lightsyes, no lights
Instrument approach: LOCALIZER
Obstructions: 13 ft. road, 200 ft. from runway
LOC AT RY END. STREET AT 110 FT FROM RY END 07 +37 FT POLE 100 FT FROM E OR 250 FT RIGHT; +10 FT BLDG 100 FT FROM E OR 200 FT RIGHT.
23 ft. pole, lighted, 200 ft. from runway, 100 ft. right of centerline
+8 FT BLAST FENCE LEFT AT 70 FT ON CNTRLN; +23 FT LGT STD AT 110 FT; STREET AT 110 FT FM RY END 25; 500 FT LEFT & RIGHT OF CNTRLN; +6 FT FENCE LEFT AT 105 FT FM EOR 500 FT LEFT & RIGHT OF CNTRLN.

Airport Ownership and Management from official FAA records

Ownership: Publicly-owned
Owner: CITY OF HAWTHORNE
CITY HALL, 4455 W 126 ST.
HAWTHORNE, CA 90250
Phone 310-349-2900
Manager: MALEK TAWEIL
12101 S.CRENSHAW BLVD, SUITE # 3
HAWTHORNE, CA 90250
Phone 310-349-1637
EMAIL: MTAWEIL@CITYOFHAWTHORNE.ORG

Airport Operational Statistics

Aircraft based on the field: 173
Single engine airplanes: 133
Multi engine airplanes: 27
Jet airplanes: 5
Helicopters: 8
    
Aircraft operations: avg 220/day *
52% transient general aviation
47% local general aviation
1% military
<1% air taxi
* for 12-month period ending 31 October 2014

Additional Remarks

TGL, STOP AND GO LDG AND LOW APCH OPNS FOR ALL ACFT INCLUDING HELICOPTERS LTD TO 1000-1700.
NO TAXI-BACK OPNS MON-FRI 2200-0800, SAT-SUN 2200-1000.
NO MULTI-ENGINE SIMULATED ENGINE-OUT PROCEDURES AUTHORIZED IN TFC PAT.
RY 25 RUNUP ON S TWY 900 FT W OF AER.
NORTH TWY DESIGNATED NON-MOVEMENT AREA.
HELICOPTER FLIGHT TRAINING OPRS PROHIBITED. HELICOPTER MULTIPLE APCHS/TFC PAT OPRS PROHIBITED.
FOR NOISE ABATEMENT INFORMATION CTC AIRPORT ENGINEER (310) 349-1637 OR 1636.
UNATNDD EVERY OTHER FRI
CLSD TO ACFT WITH EXPLOSIVES.
OBSTN PT 77: HNGRS, PLINES, BLDG-ANT ON RWY 07; POLES & TRML ON RWY 25.
BE ALERT TO 8 FT BLAST FENCE AER 25.
NUMEROUS FLOCKS OF BIRDS ON AND INVOF ARPT.

Instrument Procedures

NOTE: All procedures below are presented as PDF files. If you need a reader for these files, you should download the free Adobe Reader.

NOT FOR NAVIGATION. Please procure official charts for flight.
FAA instrument procedures published for use from 29 March 2018 at 0901Z to 26 April 2018 at 0900Z.

 
STARs - Standard Terminal Arrivals
IRNMN ONE (RNAV)   2 pages: [1] [2] (342KB)
RYDRR ONE (RNAV)   2 pages: [1] [2] (373KB)
 
IAPs - Instrument Approach Procedures
RNAV (GPS) RWY 25   download (271KB)
LOC RWY 25   download (285KB)
VOR RWY 25   download (258KB)
NOTE: Special Alternate Minimums apply   download (63KB)
NOTE: Special Take-Off Minimums/Departure Procedures apply   download (178KB)

Other nearby airports with instrument procedures:

KLAX - Los Angeles International Airport (4 nm W)
KTOA - Zamperini Field Airport (7 nm S)
KSMO - Santa Monica Municipal Airport (8 nm NW)
KLGB - Long Beach Airport (Daugherty Field) (11 nm SE)
KSLI - Los Alamitos Army Airfield (16 nm SE)
KBUR - Bob Hope Airport (17 nm N)
KEMT - San Gabriel Valley Airport (18 nm NE)
KFUL - Fullerton Municipal Airport (18 nm E)
KVNY - Van Nuys Airport (19 nm NW)
 
Loc | Ops | Rwys | IFR | FBO | Links
Com | Nav | Svcs | Stats | Notes

AirNav Hotels Sweepstakes
 
Area around KHHR (Jack Northrop Field/Hawthorne Municipal Airport)
 
Road maps at: MapQuest Bing Google
 
Aerial photo
WARNING: Photo may not be current or correct
Aerial photo of KHHR (Jack Northrop Field/Hawthorne Municipal Airport)
Photo by focalflight.com
Photo taken 28-Apr-2015
looking northeast.

Do you have a better or more recent aerial photo of Jack Northrop Field/Hawthorne Municipal Airport that you would like to share? If so, please send us your photo.

 
Sectional chart

 
Airport diagram
CAUTION: Diagram may not be current
Diagram of KHHR (Jack Northrop Field/Hawthorne Municipal Airport)
Download PDF
of official airport diagram from the FAA

 
Airport distance calculator
Flying to Jack Northrop Field/Hawthorne Municipal Airport? Find the distance to fly.

From to KHHR

Sunrise and sunset
Times for 25-Apr-2018
 Local
(UTC-7)
 Zulu
(UTC)
Morning civil twilight05:4512:45
Sunrise06:1213:12
Sunset19:3102:31
Evening civil twilight19:5702:57

Current date and time
Zulu (UTC)  25-Apr-2018 14:44:39
Local (UTC-7)  25-Apr-2018 07:44:39
 
METAR
KHHR 251435Z 00000KT 7SM FEW013 13/10 A3008 RMK AO2 T01330100
KLAX 
2nm W 
251353Z 07003KT 5SM HZ OVC013 14/10 A3006 RMK AO2 SLP179 T01390100
KSMO 
8nm NW 
251351Z 13003KT 3SM HZ OVC010 13/10 A3007 RMK AO2 SLP180 T01280100 $
KTOA 
8nm S 
251347Z 00000KT 4SM BR FEW009 BKN015 13/10 A3006
KCQT 
9nm NE 
251347Z AUTO 13003KT 4SM HZ OVC013 14/11 A3006 RMK AO2 SLP177 T01390106
KLGB 
11nm SE 
251430Z 00000KT 8SM OVC015 15/11 A3007 RMK AO2 T01500106
KBUR 
17nm N 
251353Z 08004KT 2 1/2SM BR OVC006 12/11 A3005 RMK AO2 SLP166 T01220111 $
KSLI 
18nm SE 
251356Z 00000KT 7SM SCT014 13/10 A3006 RMK AO2A SLP182 T01330103
KFUL 
18nm E 
251353Z 00000KT 6SM HZ OVC013 14/11 A3005 RMK AO2 SLP174 T01440111
KEMT 
18nm NE 
242345Z 21008KT 10SM CLR 23/08 A2997
TAF
KLAX 
2nm W 
251130Z 2512/2618 15005KT P6SM OVC010 FM251800 26005KT 6SM HZ SCT010 FM252000 26012KT P6SM FEW015 FM260700 26006KT P6SM BKN010 FM260900 VRB03KT P6SM BKN010
KSMO 
8nm NW 
251306Z 2513/2612 VRB03KT 5SM BR OVC010 FM251700 VRB03KT 5SM HZ SCT012 FM252000 23010KT P6SM SCT200 FM260400 VRB03KT P6SM OVC012
KLGB 
11nm SE 
251130Z 2512/2612 VRB03KT P6SM OVC010 FM251700 VRB03KT P6SM FEW010 FM251900 18008KT P6SM SCT200 FM252300 30008KT P6SM SCT200 FM260400 VRB03KT P6SM SCT200 FM260700 VRB03KT P6SM OVC012
KBUR 
17nm N 
251340Z 2514/2612 15006KT 2SM BR OVC006 FM251700 VRB03KT P6SM SKC FM251900 17010KT P6SM SCT250 FM260400 VRB03KT P6SM SCT200 FM261000 VRB03KT 6SM BR OVC007
KSLI 
18nm SE 
242102Z 2421/2603 VRB06KT 9999 FEW015 BKN250 QNH2998INS BECMG 2502/2503 VRB06KT 9999 FEW200 QNH3001INS BECMG 2507/2508 VRB06KT 6000 BR BKN007 QNH3005INS TEMPO 2508/2516 BKN005 BECMG 2515/2516 20006KT 9999 NSW FEW010 SCT015 QNH3003INS BECMG 2520/2521 20009KT 9999 BKN300 QNH3001INS TX21/2422Z TN11/2513Z
KVNY 
19nm NW 
251343Z 2514/2612 VRB03KT 2SM BR OVC006 FM251500 VRB03KT 4SM BR OVC008 FM251700 VRB03KT P6SM FEW010 FM251900 15010KT P6SM SCT250 FM260400 VRB03KT P6SM SCT200 FM261100 VRB03KT 6SM BR OVC007
NOTAMs
Click for the latest NOTAMs
NOTAMs are issued by the DoD/FAA and will open in a separate window not controlled by AirNav.

 

 
 

FBO, Fuel Providers, and Aircraft Ground Support

  
 Business Name 
 
 Contact 
 
 Services / Description 
 
Fuel Prices
 
Comments
  
Jet Center Los Angeles
UVair FBO Network
123.30
310-676-4673
[web site]
[email]
Airport management, Aviation fuel, Aircraft parking (ramp or tiedown), Hangars, Hangar leasing / sales, GPU / Power cart, Passenger terminal and lounge, ...
More info and photos of Jet Center Los Angeles
 
AirBoss™ fuel program   NATA Safety 1st   CJP FuelAdvantage   UVair   Crew cars   Courtesy shuttle   Go Rentals   National Business Aviation Association  
 
EPIC
100LL Jet A
FS $6.80 $6.52 
SS $5.80 --- 
GUARANTEED
AirBossMEMBERS
ONLY
Discounts
LoginJoin
 
   11 read write
Hawthorne Hangar Operations ASRI 128.85
310-644-0400
[email]
ABOUT HAWTHORNE HANGAR OPERATIONS
Hawthorne Hangar Operations (HHO) is a new full-service FBO centrally located on the Hawthorne Municipal Airport field in the Wolfe Air hangar facility (turnout Delta on runway 7-25). Offering both Jet A and Avgas, HHO began operations as KHHR's CAA-preferred FBO on August 1, 2017. HHO offers all the amenities discerning guests expect from a customer-centric FBO, complete with concierge services for every client. Guests can now fly in and fuel up with the options of full service with a jet fuel truck or assisted self-service at self service station.
More info and photos of Hawthorne Hangar Operations
 
U.S. Government AIR Card   CAA Preferred FBO   Avfuel Contract Fuel   UVair   World Fuel | Colt Contract Fuel   AVTRIP   Contract Fuel   Crew cars   Courtesy shuttle   Enterprise Rent-A-Car   Go Rentals   National Business Aviation Association  
 
Avfuel
100LL Jet A
FS $5.65 $4.82 
GUARANTEED
 
   30 read write
FS=Full service
SS=Self service
Update Fuel Prices
 

Aviation Businesses, Services, and Facilities

  
 Business Name 
 
 Contact 
 
 Services / Description 
 
Distance
 
Comments
  
Leading Edge Avionics
Leading Edge Avionics
toll-free 1-855-955-6151
[web site]
[email]

Like us on facebook See us on instagram Follow us on twitter
Leading Edge Avionics is a FAA Certified Part 145 Repair Station (137R236D) that provides outstanding avionics repair and installation services for all General Aviation aircraft from business jets to helicopters to single engine airplanes. We are committed to delivering our customers with services that ensure uncompromised safety and the highest quality of workmanship and reliability, while exceeding our clients' expectations on all levels. 24/7 AOG Service is also available at all Southern California airports, so call us at (855) 955-6151 and let us exceed all your service expectations!
More info and photos of Leading Edge Avionics
located at KSNA  
   write
 Star Helicopters
310-355-1959
[web site]
[email]
Flight training, Aerial tours / aerial sightseeing, Aerial photography, Aviation accessories, Aircraft sales / leasing / brokerage, Pilot supplies, Computerized weather, Restrooms

More info about Star Helicopters
on airport  
   write
 

Getting Around: Taxi, Limo, Rental Cars, Mass Transit

  
 Business Name 
 
 Contact 
 
Services / Description
 
Comments
  
MTA Metro Rail, Green Line 213-620-7245
no information available

If you are affiliated with MTA Metro Rail, Green Line and would like to show here your services, contact info, web link, logo, and more, click here
 
   write
 

Would you like to see your business listed on this page?

 If your business provides an interesting product or service to pilots, flight crews, aircraft, or users of the Jack Northrop Field/Hawthorne Municipal Airport, you should consider listing it here.  To start the listing process, click on the button below
 
Add a business
 

Other Pages about Jack Northrop Field/Hawthorne Municipal Airport

www.cityofhawthorne.com/...
 
Update a link
 
Copyright © AirNav, LLC. All rights reserved. Privacy Policy  Contact